Wind_Speed
13 14 14 14 13 14 14 14 14 13 12 11 11 11 12 14 14 13 12 12 14 16 18 18 19 23 24 24 25 25 26 26 27 28 29 29 30 29 28 29 30 31 32 32 31 30 31 32 30 28 28 28 27 27 28 29 30 31 31 31 30 31 31 31 31 31 32 33 34 34 35 35 36 37 39 42 45 47 47 45 41 38 35 34 34
12 13 14 13 13 13 13 13 13 12 11 11 11 12 13 14 14 13 12 13 15 17 19 20 21 23 25 25 25 25 27 29 29 30 31 31 32 32 31 30 30 29 30 31 30 30 31 30 28 28 27 26 27 27 28 29 30 31 32 31 31 32 32 32 31 31 32 33 34 34 35 35 36 39 42 45 47 47 47 46 44 40 36 34 34
13 14 14 13 13 12 12 13 12 12 11 12 13 14 14 13 13 13 12 13 15 17 19 21 22 23 25 26 27 26 27 30 31 31 32 33 34 35 34 33 32 29 28 30 32 32 32 30 28 27 27 27 27 27 29 30 30 31 32 32 32 32 32 32 32 32 32 33 34 35 35 36 38 41 45 47 47 47 46 46 45 42 39 36 36
13 14 14 13 12 12 11 12 12 12 12 14 15 15 14 13 13 14 14 14 16 19 20 22 24 25 26 27 29 30 30 32 34 33 33 34 34 35 35 35 33 30 28 30 32 32 32 32 30 28 28 28 28 28 29 30 31 32 33 32 32 32 32 32 32 32 32 33 35 35 36 37 40 44 46 48 48 48 45 43 42 42 41 41 40
14 15 15 13 11 11 11 11 12 12 13 14 15 14 13 14 15 16 17 17 18 20 22 24 26 27 28 28 30 32 33 34 36 37 37 36 35 35 36 36 35 32 30 31 32 32 33 33 32 30 29 29 29 29 30 31 32 33 33 33 32 31 32 32 33 33 33 34 35 36 37 39 42 46 47 47 49 48 45 41 40 40 41 42 42
14 14 15 13 11 12 12 12 12 13 13 13 13 13 13 14 15 17 19 20 20 21 24 26 27 29 30 31 32 34 35 35 36 39 40 39 38 37 36 36 34 33 32 32 33 34 34 35 34 31 29 29 30 30 31 32 33 33 33 33 32 31 32 33 34 34 34 35 35 36 38 41 44 47 49 49 49 49 47 44 42 41 41 42 42
15 14 14 13 11 12 13 13 12 12 12 11 12 12 13 14 15 17 19 21 22 23 25 27 29 31 33 34 35 36 36 36 37 39 41 41 40 39 38 36 35 34 33 33 34 35 35 35 35 33 30 30 31 32 32 33 33 33 33 32 32 32 34 35 35 35 35 35 36 38 40 44 47 49 51 52 52 51 49 46 44 42 42 43 43
16 13 14 14 12 13 15 14 13 12 11 11 12 12 13 14 14 15 18 21 24 25 26 28 31 33 35 37 38 38 38 38 38 39 41 42 40 39 39 37 37 37 35 33 35 36 37 37 36 34 33 32 34 35 35 34 33 32 32 32 33 34 35 36 36 36 36 36 38 40 43 47 50 52 53 54 54 53 51 47 45 43 43 44 45
18 14 14 15 13 14 16 14 13 13 11 11 11 11 12 13 14 15 18 21 24 27 27 29 31 34 36 38 39 40 40 39 39 40 42 43 42 40 39 38 38 38 37 35 36 37 38 40 39 37 36 36 36 36 36 35 34 33 33 33 34 36 37 37 36 36 35 37 40 44 46 49 51 53 54 55 54 53 50 48 46 45 46 47 47
19 16 15 16 16 16 17 15 14 13 11 10 10 12 14 16 18 20 22 24 26 28 30 31 32 35 37 39 41 42 41 39 39 41 42 43 43 42 40 38 38 39 39 38 38 38 40 42 41 40 40 38 36 34 34 35 34 34 33 34 36 38 38 37 36 34 34 37 42 45 47 49 51 53 53 54 54 52 49 47 47 47 48 48 48
20 18 16 18 18 18 17 16 15 13 12 12 13 16 19 22 24 26 27 28 30 32 33 34 34 36 39 42 44 44 42 41 40 42 43 43 44 42 40 39 40 41 41 40 39 40 41 42 42 42 41 38 36 34 34 34 35 35 35 36 39 40 39 38 36 33 35 39 43 47 49 50 51 52 52 51 51 51 49 49 49 49 49 49 49
20 19 18 18 19 18 17 17 15 15 16 17 18 20 22 25 28 29 30 31 33 35 37 37 38 38 40 43 45 45 44 42 42 45 45 45 45 42 40 41 42 42 42 41 40 40 42 43 43 41 40 38 36 35 34 35 35 36 37 38 41 42 41 39 36 35 38 42 47 50 51 50 50 50 50 49 49 50 50 50 51 51 51 50 50
20 20 19 18 18 17 18 18 17 17 19 20 21 22 24 27 29 31 33 34 35 37 37 38 40 41 41 43 45 46 44 43 47 49 47 47 46 43 41 43 43 42 42 42 41 40 42 45 45 43 40 38 38 37 36 37 37 37 38 39 42 43 42 39 37 38 41 45 50 52 51 50 49 48 49 49 49 50 51 52 52 52 51 51 50
19 20 19 18 17 17 19 19 19 20 21 22 23 25 26 28 31 33 35 36 38 38 38 39 41 43 44 45 46 47 46 46 51 52 50 49 46 41 41 43 43 42 42 43 42 42 43 45 47 47 43 40 40 40 39 38 39 39 40 41 42 43 42 40 39 41 44 49 53 52 49 48 48 48 49 51 52 53 54 54 53 51 50 49 48
17 18 19 18 18 19 20 21 22 22 23 24 25 26 28 30 32 34 36 38 41 41 42 44 45 46 47 47 47 48 48 49 53 54 52 50 43 38 39 42 42 42 42 43 43 44 45 46 48 50 48 44 43 42 41 41 41 42 44 44 44 43 42 40 41 44 48 52 53 50 48 48 48 49 52 54 55 55 55 54 52 50 48 47 45
18 19 19 19 19 20 22 23 24 24 25 26 27 28 30 31 33 36 38 40 42 43 44 47 48 49 50 50 50 51 49 50 53 53 49 44 39 36 38 40 41 42 42 43 43 44 45 47 49 50 49 47 46 44 44 44 45 47 48 46 43 42 42 42 44 47 50 52 51 48 47 48 49 51 54 55 55 55 54 51 48 47 45 43 42
20 20 21 21 21 23 25 26 27 28 29 29 30 31 32 33 35 37 39 41 44 46 47 48 50 52 53 52 53 52 50 50 53 50 44 39 37 37 39 41 42 43 43 43 43 42 44 48 49 48 45 44 44 44 44 46 47 48 46 43 41 43 45 45 44 45 47 48 48 47 48 49 51 53 54 54 53 52 50 47 45 44 43 41 41
22 23 24 24 25 27 29 30 31 33 33 33 33 34 34 35 36 38 40 43 46 48 49 50 51 52 52 52 52 52 51 52 51 46 39 36 37 38 40 41 43 43 43 43 42 42 44 49 51 50 45 39 36 36 39 44 45 44 42 43 45 46 45 44 43 43 45 46 47 48 50 52 53 53 53 51 50 48 47 44 43 42 41 41 41
25 26 28 29 29 31 32 34 36 38 38 39 39 38 36 37 38 39 42 45 48 49 49 50 52 51 51 52 52 51 51 50 47 43 39 38 38 38 39 41 42 42 42 42 43 43 43 45 47 46 42 36 34 36 40 43 43 42 43 46 46 45 44 44 45 45 46 47 48 50 52 53 53 52 50 49 47 45 43 41 41 41 41 41 42
28 30 31 32 34 35 37 39 41 42 43 44 44 41 39 39 40 41 43 46 48 49 49 50 51 51 51 52 50 48 47 45 43 42 42 41 40 40 41 42 41 41 42 43 43 43 43 44 42 39 37 37 39 42 43 43 43 44 46 47 46 46 46 46 46 47 48 49 50 51 52 52 51 50 48 45 43 41 40 40 41 41 42 42 43
32 33 34 37 39 40 42 43 45 47 48 47 46 43 41 42 43 44 45 47 48 49 50 50 51 51 52 51 49 46 43 41 41 42 43 42 41 41 43 43 41 41 42 43 43 43 41 38 35 34 36 39 41 43 43 43 45 47 47 48 48 47 47 47 48 49 50 51 52 52 52 51 49 47 44 42 40 39 39 40 41 42 43 42 42
34 36 39 42 42 42 44 46 47 49 50 48 47 46 44 44 44 45 46 47 48 49 49 50 51 52 51 51 48 45 42 41 42 43 42 41 40 41 44 44 41 40 41 42 42 39 35 33 35 38 40 42 43 44 44 46 48 49 49 49 49 48 48 49 50 51 52 52 53 52 51 49 46 43 41 39 38 38 39 40 42 43 42 41 41
37 38 41 43 42 42 45 47 48 50 51 50 50 49 46 43 43 46 48 48 48 48 48 50 52 52 51 50 48 44 42 42 43 43 43 43 42 41 43 42 40 41 43 41 37 34 34 38 41 42 43 44 45 46 47 49 51 51 51 50 50 49 50 51 51 52 52 52 52 50 48 45 42 39 38 37 37 38 39 41 41 41 41 40 41
40 40 41 42 42 44 46 48 50 52 54 53 53 53 50 44 43 46 49 48 48 48 48 50 51 51 51 51 48 46 44 45 45 44 43 43 40 38 38 38 38 39 38 36 34 36 40 42 43 43 44 45 45 47 49 51 52 52 52 51 51 51 51 51 52 52 52 51 50 47 43 40 38 37 37 37 38 39 40 40 39 40 40 40 40
42 42 43 44 45 47 48 49 52 54 56 56 57 57 52 45 43 46 48 48 47 48 50 51 51 51 51 51 49 48 47 47 47 44 42 41 39 36 36 35 33 32 34 37 40 42 42 41 41 42 43 44 46 48 50 51 52 52 53 52 52 52 51 51 52 51 50 48 45 42 38 36 36 36 37 38 39 39 39 38 38 39 39 39 38
44 45 46 47 48 49 50 52 54 56 58 58 57 53 46 41 42 45 47 47 48 49 51 52 52 52 52 51 49 48 48 48 47 44 42 41 38 37 37 34 31 34 40 43 44 42 41 41 41 42 43 46 48 50 50 52 53 53 53 52 52 51 51 51 50 49 47 44 40 37 35 35 36 37 38 39 39 38 38 37 38 38 38 37 36
46 48 48 48 49 50 52 54 55 56 56 53 47 42 40 40 43 45 46 47 48 50 51 52 52 52 52 50 49 48 47 47 46 43 41 39 39 40 38 34 35 42 45 44 42 42 42 42 42 44 46 48 50 51 52 53 53 52 52 52 52 51 51 50 48 45 42 39 36 35 35 36 37 37 38 38 38 37 37 37 37 36 36 34 33
48 48 49 49 51 52 53 52 49 47 45 43 40 40 41 42 44 45 46 48 49 50 51 51 51 52 51 49 48 47 47 46 44 42 40 40 42 43 39 37 41 49 48 44 43 43 42 43 44 46 48 49 50 52 52 52 51 51 51 51 51 50 49 47 44 40 37 35 34 35 37 37 38 37 38 37 37 36 36 35 35 34 33 32 31
48 49 50 50 50 49 48 46 43 40 40 41 42 43 43 43 44 46 48 49 50 50 51 51 51 51 50 49 47 46 45 44 43 42 42 42 42 41 39 41 48 52 48 45 45 43 43 45 46 48 49 50 50 50 50 49 49 49 49 48 48 47 45 41 37 34 33 34 35 36 36 37 37 37 36 36 35 35 34 34 33 32 30 29 29
48 49 48 46 44 43 43 43 42 42 43 44 45 44 44 45 46 48 49 50 50 50 50 50 50 50 48 47 46 45 45 44 44 43 43 42 41 41 43 47 51 50 48 47 46 45 45 46 47 49 51 51 50 49 48 47 47 47 47 46 45 43 40 37 34 33 34 36 36 35 35 36 37 36 35 34 34 33 33 32 31 30 29 28 28
48 47 44 41 41 42 43 44 44 45 45 46 45 45 46 47 48 49 50 49 49 49 50 50 49 47 46 45 44 44 45 45 45 44 42 41 41 43 46 48 49 48 47 46 45 45 46 47 48 49 50 50 49 48 47 46 47 47 46 44 41 38 36 35 34 34 36 37 37 37 36 36 36 36 35 34 32 32 32 31 30 29 28 28 28
48 46 44 43 44 45 45 47 48 48 47 46 47 48 48 49 50 50 49 48 48 49 48 48 46 45 44 44 44 44 45 45 45 44 42 40 42 44 46 46 47 46 45 44 44 45 46 47 47 48 47 47 47 47 47 47 46 45 43 40 38 36 35 36 36 36 37 37 38 37 36 35 35 34 33 32 31 30 30 29 29 28 28 28 28
47 46 45 45 46 47 48 49 49 48 48 48 49 49 50 50 50 49 47 47 47 47 46 45 44 44 44 44 45 45 45 45 45 43 41 41 43 44 45 45 45 45 45 45 46 47 46 46 46 45 45 45 46 46 46 46 44 42 39 36 35 36 37 37 38 38 37 37 36 36 35 34 34 33 32 31 30 29 29 28 28 27 27 27 28
45 44 44 45 47 48 49 50 50 50 51 51 51 51 52 52 50 48 47 46 46 45 44 44 44 44 45 45 45 45 45 44 44 43 43 43 44 45 45 46 46 46 47 47 47 46 45 44 44 44 44 45 46 45 44 43 40 37 36 35 36 37 38 38 37 37 36 35 34 34 33 33 32 31 30 30 29 29 28 27 26 26 26 26 26
43 42 44 47 49 50 51 52 51 52 53 53 53 53 52 50 47 46 46 45 45 44 43 44 44 45 45 45 45 45 44 44 43 43 44 45 46 47 47 47 47 47 47 46 44 43 42 43 43 44 45 45 44 42 40 38 36 35 35 36 37 37 37 36 36 35 34 33 33 32 32 31 30 30 29 29 28 28 27 26 25 25 25 25 25
42 44 47 50 51 53 54 54 54 54 54 53 52 51 49 47 45 45 45 44 43 43 43 44 44 45 45 45 45 44 43 44 44 45 46 46 47 47 47 46 46 45 44 42 41 40 41 43 44 44 43 42 40 37 35 34 34 35 36 36 35 35 35 35 34 33 32 32 31 30 30 30 29 28 28 28 28 27 26 25 24 24 24 24 24
47 49 51 52 52 54 56 55 54 54 53 51 50 48 47 45 45 44 43 43 43 43 43 44 44 44 44 44 44 43 44 45 46 46 46 46 45 45 44 43 43 42 40 40 39 40 41 42 43 42 40 37 34 33 32 33 34 34 34 33 33 33 33 34 33 32 31 30 29 28 28 28 27 27 27 27 26 26 24 24 23 23 23 23 23
51 52 54 55 55 56 56 53 51 50 49 48 47 46 45 45 44 42 42 42 43 43 43 43 44 44 44 43 43 44 45 46 46 45 45 44 43 42 40 40 40 40 40 40 40 40 41 40 39 38 35 32 31 31 32 32 32 31 31 32 32 32 31 31 31 30 29 29 28 27 27 26 26 26 26 25 25 24 23 23 23 22 22 22 22
54 56 58 59 59 56 53 50 48 47 46 46 45 45 44 43 42 41 41 42 42 42 42 42 43 43 43 43 43 44 44 44 43 43 42 41 39 37 36 37 38 40 41 41 40 39 38 36 35 33 31 30 30 30 30 29 29 30 30 31 32 32 31 29 28 27 27 26 26 26 26 25 25 25 24 24 24 23 23 23 22 22 22 22 22
56 58 58 56 54 50 47 46 45 44 44 44 43 43 42 41 41 41 41 41 42 42 42 42 42 42 42 42 42 42 42 42 41 40 39 37 36 35 36 38 39 40 40 39 37 35 34 32 31 30 28 28 27 27 27 27 28 29 30 31 31 31 30 28 26 25 24 24 24 24 24 24 24 24 23 23 23 23 23 23 22 22 22 22 22
55 54 51 48 46 44 43 42 42 41 41 42 41 41 41 41 42 42 41 41 41 41 41 41 40 40 41 41 40 40 40 39 38 37 37 36 36 37 37 38 38 36 35 34 32 31 30 29 28 28 27 25 24 23 24 26 28 29 30 30 29 28 27 26 25 24 23 23 23 23 23 23 23 23 23 23 23 23 23 23 23 23 22 22 23
50 47 44 41 40 39 38 38 39 40 40 40 40 40 40 41 41 41 42 42 42 41 39 38 37 38 39 39 38 38 37 37 37 37 36 36 35 35 35 35 34 32 31 30 29 28 26 26 27 26 25 22 21 22 24 25 27 28 28 27 27 26 25 25 24 23 23 23 23 23 24 24 23 23 23 23 23 23 23 23 23 23 23 23 23
43 40 38 36 36 36 36 37 38 40 40 40 40 41 41 40 40 41 42 42 41 40 38 36 36 36 37 37 37 37 37 37 37 37 36 34 33 32 32 32 30 29 29 29 28 26 25 26 25 23 20 19 20 22 23 24 25 25 25 25 25 25 24 24 23 23 23 23 24 24 24 24 24 24 24 24 24 24 24 24 24 24 24 23 23
37 36 35 35 36 36 37 37 38 39 39 40 40 41 41 41 41 42 41 40 39 38 36 34 35 35 35 35 36 36 37 37 37 36 35 33 32 31 31 30 28 27 28 28 26 25 26 25 22 19 18 18 19 21 21 22 22 23 23 24 24 24 24 23 23 23 23 24 24 24 24 25 25 25 24 24 25 25 25 25 25 25 25 25 24
34 35 36 37 37 38 38 39 39 39 39 40 40 41 41 41 41 40 39 38 37 36 34 33 34 35 35 35 36 36 37 37 36 34 33 31 30 30 29 28 26 26 26 26 25 24 24 22 19 17 17 18 18 19 20 20 21 22 22 23 23 23 23 22 22 23 23 24 25 25 25 25 25 25 25 25 25 25 25 26 26 26 25 25 25
34 36 37 38 39 39 40 40 40 40 40 40 41 41 41 40 39 38 37 35 35 34 34 34 34 35 35 35 36 36 36 36 35 33 31 30 29 28 28 26 24 24 25 25 24 23 22 20 17 16 17 17 18 18 18 19 20 21 21 22 22 22 22 22 22 22 23 24 25 25 26 26 26 26 26 26 26 26 26 26 26 26 25 25 24
35 37 38 38 39 40 40 40 40 40 40 40 40 40 39 39 37 35 34 33 33 34 34 35 34 34 34 35 36 36 35 34 33 32 31 29 28 28 27 26 25 24 24 24 22 21 20 18 17 16 17 17 17 18 19 19 20 21 21 21 22 22 22 22 22 23 23 24 24 25 26 26 26 26 26 26 26 26 26 26 25 25 24 23 23
36 37 38 39 39 40 40 40 40 40 40 39 39 39 38 36 34 33 32 33 33 34 35 36 35 34 34 35 35 35 34 33 32 31 30 29 28 28 27 26 25 24 23 21 19 19 19 18 17 17 17 18 18 19 20 21 21 21 22 22 22 22 23 23 23 24 24 25 25 25 26 26 26 26 26 26 27 26 26 25 23 22 21 20 20
37 37 38 38 39 39 39 39 40 39 39 38 38 37 36 34 32 32 33 34 35 35 35 36 36 35 34 34 34 33 33 32 31 30 30 29 28 27 26 24 22 22 21 19 17 17 18 18 18 18 18 19 20 21 22 22 23 23 23 23 23 23 24 24 24 25 25 26 26 26 26 26 26 27 27 26 26 24 22 20 19 17 17 17 17
37 37 37 37 38 38 38 38 38 38 38 37 36 34 33 32 32 33 34 35 35 35 35 35 35 35 34 33 33 32 31 31 30 29 28 27 26 24 22 20 19 19 18 17 16 17 18 18 18 19 19 20 21 22 23 24 24 24 24 24 24 24 24 25 25 26 26 26 26 26 26 26 26 27 26 25 23 20 17 15 14 14 15 15 16
36 37 37 37 37 36 36 37 37 36 36 36 35 34 33 33 34 35 35 35 35 35 35 35 35 34 34 33 32 31 31 29 28 26 24 23 22 20 19 17 16 17 17 17 17 17 18 19 19 20 21 21 22 23 24 25 25 25 25 26 26 26 25 26 26 26 27 27 27 26 26 26 26 26 25 23 20 17 14 13 13 14 15 15 16
Wind_Direction
278 277 276 273 272 275 276 278 283 285 286 288 290 294 297 300 304 309 313 319 325 329 327 327 330 330 330 330 327 323 319 318 318 319 318 319 319 315 310 305 302 303 304 298 290 287 286 284 284 284 285 284 283 286 289 291 293 294 293 293 293 292 293 293 293 293 293 293 294 295 297 299 303 307 310 309 309 309 309 308 306 301 295 291 289
286 283 280 278 275 276 277 280 283 284 286 289 290 295 299 300 303 307 313 320 325 328 327 327 330 330 327 325 324 321 319 318 318 317 318 319 318 315 312 308 305 304 306 303 297 293 290 287 285 285 285 284 283 284 287 290 293 295 294 293 292 291 292 292 293 293 292 293 294 295 298 300 304 310 312 309 308 309 309 308 306 301 296 293 292
292 286 282 280 279 279 281 282 283 284 287 291 294 299 302 298 300 306 312 319 324 327 329 329 330 327 323 321 320 320 317 314 312 312 313 314 314 313 312 311 309 305 304 303 302 299 295 289 285 284 285 285 285 284 286 289 293 294 293 291 290 290 291 293 294 293 292 293 294 296 298 301 306 311 312 310 309 309 308 307 304 301 297 295 294
295 290 285 283 283 283 284 282 282 285 289 292 297 301 299 295 301 308 313 319 323 326 327 328 327 325 323 321 319 318 315 312 310 310 310 311 311 311 309 309 310 306 302 302 302 301 297 291 286 285 285 286 287 286 286 288 291 293 292 290 289 290 292 293 294 293 292 292 293 295 297 303 309 311 310 309 309 309 307 304 300 298 297 296 297
297 294 288 283 284 283 281 281 282 286 290 292 296 297 292 293 303 309 312 317 322 324 325 326 326 325 325 324 321 317 315 313 312 312 312 312 311 309 306 306 308 307 303 300 300 300 296 292 287 284 284 285 287 287 286 286 291 293 292 291 291 292 293 294 294 293 292 292 293 295 298 304 309 309 307 307 308 308 305 300 295 292 292 294 296
297 296 288 281 280 279 278 280 281 285 289 291 293 292 289 294 304 309 311 315 318 321 323 324 325 325 323 324 324 320 317 316 315 313 313 313 311 308 305 302 304 307 305 299 296 295 294 292 288 283 282 285 287 288 286 287 290 293 293 293 295 296 296 295 295 294 293 293 293 295 300 305 307 306 305 304 305 305 302 297 293 290 288 290 293
293 292 283 276 275 276 275 277 279 283 288 289 289 289 289 294 302 308 310 314 316 318 321 321 323 323 322 323 324 321 318 317 315 314 313 312 310 308 306 303 302 304 306 301 296 295 295 295 291 284 281 284 287 287 286 287 289 291 292 294 297 298 298 296 296 295 294 293 294 296 300 304 304 303 303 303 304 303 299 295 292 290 289 290 292
287 283 275 271 269 269 270 272 275 279 281 283 285 288 292 296 302 309 313 315 316 318 319 320 321 321 321 320 320 319 319 316 313 313 313 310 308 306 304 302 300 300 302 301 296 295 295 295 292 286 281 282 285 286 286 287 289 290 292 295 298 299 298 296 296 295 295 296 297 298 300 301 301 301 301 302 302 300 297 293 290 290 291 292 294
282 275 267 267 262 259 263 265 267 271 273 275 281 289 297 303 307 312 315 314 314 316 318 318 319 318 317 317 317 316 318 317 314 313 312 309 307 305 301 298 297 297 298 299 297 294 291 290 289 286 281 280 282 283 285 288 290 292 294 297 299 299 297 295 295 296 298 300 301 301 300 299 299 299 299 300 300 297 295 292 291 291 291 292 294
277 271 262 262 258 254 257 258 258 261 262 266 278 291 299 305 308 311 312 312 312 314 315 316 316 314 313 314 314 313 314 316 315 313 311 309 307 304 302 300 298 297 298 298 298 295 290 286 285 283 281 279 279 280 283 286 290 293 295 297 298 297 295 294 294 296 298 301 302 302 301 300 299 298 298 298 298 296 294 293 292 292 292 293 295
272 269 259 256 253 249 250 251 251 253 258 267 280 291 300 305 308 309 310 312 313 313 314 314 312 312 313 314 313 311 311 313 313 309 308 308 306 303 302 299 295 296 298 298 299 299 294 288 283 281 280 279 279 281 283 287 290 293 295 296 296 295 294 293 292 293 296 299 302 304 304 302 299 298 297 297 296 296 295 295 295 294 294 296 297
267 265 258 251 248 246 247 249 250 256 268 278 283 290 298 304 306 308 309 311 313 312 312 311 310 311 314 315 314 313 311 310 310 307 305 305 304 300 299 296 293 296 298 297 297 299 296 290 283 280 279 279 280 281 283 286 290 292 294 296 296 296 295 291 289 289 293 298 303 306 305 302 299 298 297 297 296 296 296 297 297 297 297 298 298
260 260 256 249 245 246 250 252 257 268 279 284 288 293 299 303 305 306 307 309 309 309 308 308 310 312 313 313 314 314 312 308 305 304 304 304 302 298 295 294 294 297 298 296 294 294 294 290 285 280 279 279 279 281 283 286 288 291 294 296 297 296 294 290 287 288 292 297 303 305 303 301 300 299 298 298 298 298 299 300 299 299 299 298 297
253 253 250 246 248 254 258 261 267 277 285 289 293 298 301 302 302 303 305 305 304 304 306 308 310 312 311 311 312 312 310 305 303 303 304 303 299 294 292 293 294 295 295 293 293 292 292 291 287 283 281 279 279 280 283 287 289 290 292 293 296 296 292 289 289 290 293 297 301 302 301 300 300 300 299 300 300 300 301 301 299 299 299 297 295
244 246 248 249 255 261 266 270 276 282 288 291 293 296 297 298 299 300 302 303 304 307 309 309 309 309 309 310 310 310 307 303 302 305 305 300 294 290 289 290 291 292 292 293 294 294 292 291 289 286 282 278 277 279 282 285 288 289 289 290 293 294 291 289 292 295 295 297 299 299 297 297 298 299 300 301 302 302 302 301 300 299 297 296 295
243 248 253 257 262 266 269 274 278 283 287 288 289 291 292 293 296 298 300 303 306 307 307 305 305 305 306 307 308 307 305 304 304 305 303 297 292 289 288 289 291 291 290 291 293 292 290 289 289 288 284 277 274 277 281 285 287 289 289 290 292 296 297 298 298 297 295 296 296 297 296 297 298 299 300 300 301 301 301 301 300 298 296 296 295
250 255 259 262 264 266 269 274 278 280 282 283 285 286 287 290 292 295 298 301 302 302 301 301 301 302 304 306 306 305 304 305 305 304 300 296 293 291 289 289 290 290 290 291 293 293 291 289 285 281 277 274 273 276 281 286 289 289 291 294 298 303 305 303 300 296 295 295 296 297 297 297 298 299 301 301 301 301 301 300 299 298 298 297 296
254 257 261 263 263 265 269 273 275 277 278 279 279 280 283 287 290 293 296 297 296 297 299 300 302 305 307 308 306 304 304 304 303 301 298 294 293 292 289 286 286 288 290 292 295 296 295 294 288 277 271 275 281 283 286 291 292 293 298 303 307 307 305 303 300 298 297 297 297 297 297 298 300 302 302 302 301 301 300 300 300 300 300 299 298
253 256 260 262 264 267 269 270 273 275 276 274 274 276 281 285 289 291 292 292 294 297 300 302 305 308 309 309 308 305 303 301 300 297 295 294 294 293 290 287 287 289 291 291 293 295 296 298 294 283 276 283 294 297 297 297 297 300 305 308 309 307 305 303 302 300 299 298 298 299 300 302 303 303 303 302 301 300 300 301 301 301 301 301 301
254 257 260 263 265 266 267 269 272 273 271 269 271 275 282 286 287 288 289 291 293 296 299 302 305 307 308 309 309 306 301 298 296 294 294 295 296 295 291 289 290 291 290 290 291 293 293 294 292 287 284 290 297 299 299 298 299 304 307 308 308 307 305 303 302 301 301 301 302 303 304 305 305 304 303 302 300 299 300 301 302 302 303 303 302
255 258 260 260 261 263 264 266 268 269 269 270 273 277 283 287 287 286 287 290 292 294 298 302 304 306 306 308 309 307 303 298 294 293 293 294 295 293 290 290 290 289 288 289 291 292 292 292 292 292 293 294 296 298 298 299 303 306 307 307 306 304 303 302 302 302 303 304 305 306 305 304 304 302 301 301 300 300 301 303 303 304 304 303 301
255 257 258 259 261 264 264 265 268 272 273 275 276 277 281 285 286 285 286 289 291 293 298 302 304 305 305 306 308 308 304 299 294 293 293 293 292 291 289 289 288 286 287 290 290 291 295 298 299 298 296 295 296 297 298 301 304 306 305 303 302 302 303 304 304 304 304 305 306 306 305 304 302 301 300 300 301 302 303 304 304 305 304 303 301
255 257 260 263 268 270 270 271 273 275 275 276 276 275 278 283 285 285 286 287 290 293 297 301 303 304 304 305 307 307 303 298 294 294 295 295 292 289 287 287 285 285 286 288 289 293 301 303 301 298 295 294 294 295 297 300 303 303 302 301 301 303 305 305 304 304 305 305 305 305 303 302 301 300 301 302 303 304 305 305 305 304 303 302 302
255 258 262 266 269 270 271 272 274 275 276 277 277 278 282 283 283 284 286 287 290 293 296 299 300 301 302 303 304 304 302 298 297 299 300 298 293 289 286 286 286 287 289 292 297 302 304 302 298 296 294 293 293 294 296 299 301 301 301 302 303 305 306 305 304 304 305 305 304 303 302 301 301 302 303 304 305 306 306 305 304 303 302 302 302
255 259 263 265 267 267 269 271 272 273 274 275 277 281 284 282 280 283 287 288 290 293 295 297 298 299 300 301 302 303 302 301 301 303 303 300 293 288 286 286 287 292 300 305 307 305 301 298 295 293 291 291 292 295 298 300 301 300 301 302 304 306 306 305 304 304 304 303 302 301 301 301 303 304 305 306 306 305 304 303 303 302 303 303 302
254 258 261 264 265 267 268 268 269 270 273 276 280 283 282 280 281 285 288 289 291 293 295 296 298 298 299 300 301 302 302 301 302 304 303 298 291 286 284 282 287 300 308 309 306 301 296 294 293 292 291 293 296 299 300 300 299 299 300 303 305 306 305 305 304 304 303 302 300 300 301 303 305 305 305 305 305 304 303 303 303 303 304 304 301
253 257 261 264 266 268 268 268 271 274 277 280 282 281 279 281 285 287 289 289 290 292 294 296 297 297 298 300 301 302 301 301 302 304 302 296 291 288 283 278 289 305 309 305 301 298 295 294 294 294 295 297 298 298 297 297 298 300 303 304 305 305 304 303 303 303 302 300 300 301 303 304 305 305 304 304 303 302 302 303 303 304 304 302 299
253 257 261 263 266 267 268 271 276 279 278 277 278 279 281 283 286 287 289 289 290 292 294 295 296 297 298 300 301 301 301 301 302 305 304 299 294 290 282 280 295 306 307 303 301 299 296 294 294 295 296 296 297 297 297 298 300 302 303 303 303 302 303 303 303 303 302 301 302 304 305 305 305 305 304 303 302 302 302 302 303 303 303 301 300
255 258 261 264 267 269 272 278 281 280 276 274 276 279 282 284 286 288 289 290 291 293 294 295 296 297 298 299 300 300 302 302 303 305 306 304 299 292 285 288 298 304 304 302 301 298 295 294 295 296 297 297 297 297 297 298 299 300 300 300 300 301 302 302 302 303 302 303 304 305 305 305 304 303 302 302 301 300 300 301 301 302 302 302 303
256 259 262 266 270 273 278 280 279 277 275 275 276 279 282 285 288 290 291 292 292 293 294 295 296 298 298 299 300 301 301 303 304 305 304 302 299 295 292 294 298 301 301 300 299 297 296 296 297 297 297 296 296 297 298 299 300 300 300 301 301 302 302 301 302 303 303 304 305 305 304 303 302 302 301 301 300 300 300 299 300 301 301 303 305
256 259 262 265 269 273 276 276 275 276 277 276 277 279 282 285 288 290 291 292 293 293 294 296 297 298 299 299 299 300 301 302 303 303 302 298 294 293 294 295 296 297 296 296 295 295 296 296 296 297 297 297 299 301 302 302 302 302 302 302 302 302 302 303 305 305 304 305 306 305 304 303 302 302 301 301 300 300 299 299 299 299 300 302 304
253 257 260 264 268 271 273 274 275 277 278 278 278 281 283 286 290 292 292 293 294 295 296 297 298 298 298 297 298 299 300 301 301 302 299 294 290 291 292 293 293 293 293 293 294 295 296 297 298 298 298 300 301 302 303 303 302 302 303 304 304 304 304 305 306 306 305 306 306 306 305 303 302 301 301 300 300 300 299 299 298 298 299 301 303
250 254 258 263 268 270 272 274 277 279 280 281 282 284 286 289 291 293 294 295 296 297 297 297 297 296 296 297 298 299 299 299 300 300 297 292 290 292 293 292 293 293 294 296 297 298 299 300 300 300 301 301 302 302 303 303 303 304 305 306 307 307 307 308 307 306 307 307 306 305 304 303 301 301 301 302 301 301 300 299 299 298 299 301 303
248 253 259 265 269 271 272 275 278 280 282 283 283 285 287 290 292 294 295 296 296 296 296 295 295 295 296 297 298 299 299 299 299 299 297 294 294 294 295 295 296 297 298 299 301 301 301 300 300 301 301 302 302 303 303 304 305 306 308 309 309 308 308 308 308 308 308 307 306 304 303 302 301 302 302 302 301 300 300 300 300 299 300 302 303
251 257 262 266 269 271 272 273 275 278 280 282 282 284 287 290 292 294 294 295 294 294 294 295 295 296 297 298 298 299 299 299 298 297 297 296 296 296 296 297 298 299 300 301 302 302 301 300 300 301 301 301 302 303 304 305 307 309 310 310 309 309 309 309 309 309 308 307 306 304 303 302 302 302 301 301 300 299 299 300 300 301 301 302 303
258 262 265 268 270 272 272 272 274 276 279 281 283 286 289 291 292 293 293 293 293 293 294 295 296 296 298 298 299 299 299 298 298 297 296 296 297 297 297 298 299 299 300 301 301 301 301 300 300 300 301 301 302 304 305 308 310 310 310 309 309 310 310 310 310 310 309 307 306 305 303 302 302 301 300 299 298 298 299 300 300 301 301 302 304
261 264 267 270 272 273 273 273 274 277 280 283 285 287 289 290 290 291 291 291 292 293 294 295 296 297 298 299 298 298 298 297 298 298 298 298 298 298 298 299 299 299 299 299 300 300 299 299 299 299 300 302 304 307 309 310 310 310 310 310 311 311 311 311 311 311 309 308 306 304 302 301 301 299 298 297 296 297 298 299 300 300 301 303 305
262 265 268 270 272 272 272 274 277 280 282 284 285 286 287 288 288 289 290 292 292 293 294 296 297 297 297 297 297 297 298 298 299 299 299 298 298 299 299 299 298 298 298 298 299 299 298 297 298 299 302 305 308 310 311 310 310 311 311 312 312 312 312 311 312 312 311 310 308 306 304 302 301 298 297 296 297 298 299 300 300 301 302 303 305
262 265 267 269 271 272 273 277 280 282 282 283 284 285 285 287 288 290 291 291 293 294 295 296 296 296 296 296 297 298 298 298 298 298 298 298 298 299 298 297 297 297 298 299 299 299 298 298 299 301 304 309 311 312 311 311 311 312 312 313 313 313 313 313 314 313 312 311 309 307 305 303 301 299 298 298 299 299 300 301 301 302 303 305 306
262 265 267 269 272 274 276 278 280 280 281 282 283 284 286 288 289 290 290 292 293 294 294 294 295 295 295 296 297 297 297 297 297 298 298 298 298 297 296 296 296 296 298 299 300 300 300 300 302 305 309 312 313 312 312 312 313 314 314 315 315 315 316 316 317 316 314 312 310 308 306 304 303 302 301 301 301 302 302 303 303 304 305 306 307
264 267 269 270 272 274 275 276 278 279 280 281 283 285 287 288 288 289 291 292 292 291 292 293 294 295 295 296 296 296 297 297 298 298 298 298 297 296 296 295 296 297 299 299 300 300 301 303 306 310 312 314 313 312 312 313 314 316 316 317 317 318 319 320 320 318 317 315 313 311 309 308 307 306 305 305 304 304 305 305 305 306 306 307 308
266 267 268 269 270 272 274 276 277 279 280 282 284 286 287 287 288 290 290 289 289 289 290 292 293 294 295 296 296 297 298 298 298 298 298 297 296 295 295 295 297 298 298 298 299 301 303 306 309 311 313 313 313 313 314 315 316 317 319 320 322 322 323 323 322 320 318 316 314 312 310 310 309 309 308 308 307 307 307 307 307 307 307 307 308
265 266 267 269 271 272 274 276 277 279 281 283 285 286 286 287 288 288 288 287 287 288 289 290 291 293 294 295 296 297 299 298 298 297 297 296 295 294 294 295 297 297 297 298 301 303 305 307 309 310 311 312 314 316 316 317 319 321 324 326 328 329 329 328 326 323 320 318 315 313 311 310 310 309 309 308 308 307 307 306 306 306 306 306 307
266 268 271 273 274 275 277 278 279 280 282 284 284 285 286 286 286 286 286 287 288 288 289 291 292 292 293 294 296 297 297 296 296 296 296 296 296 297 296 296 297 297 297 298 301 303 305 306 307 308 309 311 314 316 317 320 323 326 329 332 334 336 336 333 329 325 322 320 318 316 314 313 312 311 310 309 307 306 306 305 304 304 304 304 304
270 273 275 276 278 279 280 280 281 282 283 284 284 284 284 284 284 285 286 287 287 288 290 292 292 292 293 294 295 295 294 294 294 295 296 297 298 298 298 298 298 296 296 298 301 302 303 303 303 303 306 309 313 315 318 321 324 327 330 334 338 340 340 337 333 329 326 323 321 320 318 317 316 314 313 311 309 308 306 305 304 304 304 303 303
273 275 276 278 279 280 281 281 282 283 283 283 283 283 282 282 283 284 285 286 287 288 290 291 291 292 293 294 294 293 293 293 294 294 296 298 299 299 299 299 298 295 295 298 301 300 299 299 299 301 304 308 311 313 316 319 321 324 327 332 336 338 339 339 337 334 331 327 325 323 321 319 319 318 316 314 312 310 308 307 306 305 305 305 304
274 275 276 278 278 279 280 281 281 281 281 281 281 280 280 281 283 284 285 286 286 287 289 289 289 290 292 293 293 293 293 293 293 294 295 296 297 297 297 297 296 294 295 298 299 297 295 295 297 298 301 304 307 309 312 314 317 320 324 328 331 334 336 337 336 335 334 333 330 328 325 323 321 319 317 315 313 311 309 308 307 306 307 308 308
272 273 275 276 276 277 278 278 278 279 279 279 279 279 280 283 285 285 286 286 287 287 287 287 287 289 290 290 291 291 292 292 292 293 294 294 294 294 293 294 294 294 295 296 294 290 290 292 294 295 298 300 302 304 307 310 312 316 320 323 326 329 331 333 333 333 333 333 332 331 330 327 324 322 319 316 314 312 310 309 309 310 312 315 317
270 271 273 273 274 275 275 275 276 277 278 278 279 280 282 284 284 284 285 286 286 285 285 286 288 289 289 289 289 290 290 289 290 291 292 292 292 291 291 292 293 293 294 293 289 285 286 289 291 291 294 297 299 301 304 306 309 313 316 318 321 323 326 328 329 330 331 332 332 332 331 330 328 325 322 319 317 315 314 315 318 322 327 331 333
269 270 271 271 272 273 274 274 275 276 277 278 279 280 281 281 282 282 283 284 284 284 285 286 288 289 289 289 289 288 287 287 288 289 289 290 290 290 291 291 290 289 290 289 286 283 285 287 289 290 292 294 296 299 302 304 307 311 313 314 316 318 321 323 325 326 328 329 330 331 331 331 330 329 326 324 323 322 323 327 333 338 342 344 345
268 269 269 270 271 272 273 274 274 275 276 277 278 279 280 280 280 281 282 283 283 285 286 286 287 288 288 287 287 286 286 286 286 286 286 287 288 289 290 290 288 286 287 288 287 285 285 287 289 291 293 295 297 299 301 303 306 308 310 311 313 315 316 318 321 322 324 325 327 329 331 331 331 331 330 328 327 327 330 336 341 344 344 345 346
Height
5897 5897 5897 5897 5897 5897 5898 5899 5899 5900 5900 5900 5900 5900 5901 5901 5901 5900 5900 5899 5898 5897 5896 5895 5894 5893 5892 5890 5889 5888 5886 5885 5884 5882 5880 5879 5878 5877 5876 5875 5874 5874 5873 5871 5870 5870 5869 5868 5868 5868 5868 5868 5867 5867 5866 5865 5864 5863 5862 5861 5861 5860 5860 5859 5859 5858 5856 5855 5854 5853 5852 5852 5850 5849 5848 5847 5846 5844 5842 5840 5839 5838 5836 5835 5835
5895 5895 5895 5895 5895 5895 5896 5897 5897 5898 5898 5898 5898 5899 5899 5898 5898 5898 5898 5897 5896 5895 5894 5893 5892 5891 5890 5888 5887 5886 5884 5883 5881 5880 5878 5876 5875 5874 5873 5872 5871 5870 5869 5868 5867 5866 5865 5864 5864 5864 5864 5864 5864 5863 5862 5861 5860 5859 5858 5858 5857 5856 5855 5855 5855 5854 5853 5851 5850 5849 5848 5847 5846 5844 5843 5842 5842 5840 5837 5835 5833 5832 5831 5830 5829
5893 5893 5893 5893 5893 5894 5894 5895 5895 5896 5896 5896 5896 5897 5897 5896 5896 5896 5896 5895 5894 5893 5892 5891 5890 5889 5888 5886 5885 5884 5882 5881 5879 5878 5876 5874 5873 5871 5870 5869 5868 5867 5866 5865 5863 5862 5861 5860 5860 5860 5860 5860 5860 5859 5858 5857 5857 5856 5854 5854 5853 5852 5851 5851 5850 5850 5848 5847 5845 5844 5843 5842 5841 5839 5838 5837 5836 5835 5833 5830 5828 5826 5825 5824 5823
5891 5890 5890 5891 5891 5892 5892 5893 5893 5894 5894 5894 5894 5894 5894 5894 5893 5893 5893 5893 5892 5891 5890 5889 5888 5887 5885 5884 5883 5881 5880 5878 5876 5875 5874 5872 5870 5868 5867 5866 5865 5864 5863 5861 5860 5859 5857 5856 5856 5856 5856 5855 5855 5855 5854 5853 5853 5851 5850 5849 5849 5848 5847 5847 5846 5845 5844 5842 5840 5839 5838 5837 5836 5834 5833 5832 5831 5829 5828 5826 5823 5821 5819 5818 5817
5889 5889 5888 5889 5889 5890 5890 5891 5891 5892 5892 5892 5892 5892 5892 5892 5891 5890 5890 5890 5890 5889 5887 5887 5885 5884 5883 5882 5881 5879 5877 5876 5874 5872 5871 5869 5867 5865 5864 5863 5862 5861 5859 5858 5856 5855 5854 5853 5852 5852 5852 5851 5851 5850 5850 5849 5848 5847 5846 5845 5844 5844 5842 5841 5840 5839 5839 5837 5835 5834 5833 5832 5830 5829 5828 5827 5825 5824 5822 5821 5819 5817 5816 5814 5812
5887 5887 5886 5887 5888 5888 5888 5889 5889 5890 5890 5890 5890 5890 5890 5890 5889 5888 5886 5886 5887 5886 5885 5884 5883 5881 5880 5879 5877 5876 5874 5873 5870 5868 5867 5865 5863 5862 5860 5859 5859 5858 5856 5855 5853 5852 5851 5849 5849 5848 5848 5847 5846 5846 5845 5845 5844 5843 5841 5840 5839 5838 5837 5836 5835 5834 5833 5832 5830 5829 5827 5826 5825 5824 5822 5821 5820 5818 5816 5814 5813 5812 5811 5809 5808
5885 5885 5885 5885 5886 5886 5886 5887 5887 5888 5888 5887 5887 5887 5887 5887 5887 5886 5884 5883 5883 5884 5883 5881 5879 5878 5877 5875 5874 5873 5871 5869 5867 5864 5862 5861 5859 5858 5856 5856 5855 5854 5853 5852 5851 5849 5847 5846 5845 5844 5844 5843 5842 5841 5840 5840 5840 5838 5837 5835 5834 5833 5832 5830 5829 5828 5827 5826 5826 5824 5823 5821 5820 5818 5816 5815 5814 5812 5810 5808 5806 5805 5804 5803 5802
5883 5884 5883 5883 5884 5884 5884 5884 5885 5885 5885 5885 5885 5885 5885 5885 5885 5884 5883 5882 5880 5880 5880 5879 5877 5876 5874 5872 5871 5869 5867 5865 5863 5860 5858 5856 5855 5854 5853 5852 5852 5851 5850 5849 5847 5846 5844 5842 5841 5840 5840 5839 5837 5836 5835 5835 5835 5834 5832 5830 5829 5828 5827 5825 5824 5823 5822 5821 5820 5819 5818 5816 5814 5812 5810 5808 5807 5806 5804 5802 5800 5799 5797 5796 5795
5880 5881 5881 5881 5882 5882 5882 5882 5883 5883 5883 5883 5883 5882 5882 5882 5882 5882 5882 5880 5879 5878 5878 5877 5875 5873 5871 5870 5868 5866 5864 5862 5859 5857 5854 5852 5851 5850 5849 5848 5848 5847 5846 5845 5844 5842 5840 5838 5837 5836 5835 5834 5833 5832 5831 5830 5829 5829 5827 5825 5824 5823 5821 5820 5819 5818 5817 5816 5815 5814 5813 5811 5808 5806 5804 5802 5800 5798 5797 5795 5794 5792 5791 5790 5788
5877 5879 5879 5879 5879 5879 5879 5880 5881 5881 5881 5881 5880 5880 5880 5880 5879 5879 5879 5878 5876 5876 5875 5874 5873 5870 5868 5867 5865 5863 5861 5859 5857 5853 5850 5848 5847 5846 5845 5844 5844 5843 5842 5841 5840 5838 5836 5834 5833 5831 5830 5829 5829 5829 5827 5826 5824 5823 5822 5820 5819 5817 5816 5815 5814 5813 5812 5811 5810 5808 5806 5805 5803 5800 5798 5796 5793 5791 5790 5788 5786 5785 5783 5782 5782
5875 5876 5876 5876 5876 5877 5877 5878 5878 5878 5879 5879 5879 5878 5877 5877 5876 5876 5875 5874 5873 5872 5871 5870 5869 5867 5865 5863 5861 5859 5858 5856 5853 5849 5846 5844 5843 5842 5841 5840 5840 5840 5839 5838 5836 5834 5832 5830 5828 5827 5826 5825 5825 5824 5823 5821 5820 5818 5817 5815 5813 5812 5811 5810 5809 5808 5807 5806 5804 5802 5800 5798 5796 5794 5792 5789 5787 5785 5783 5781 5779 5778 5776 5775 5774
5872 5873 5873 5873 5873 5874 5875 5875 5876 5876 5876 5876 5876 5876 5875 5874 5873 5872 5871 5871 5869 5868 5867 5866 5865 5864 5863 5860 5857 5856 5854 5853 5849 5845 5843 5841 5839 5838 5837 5836 5836 5836 5835 5834 5832 5831 5828 5825 5823 5822 5822 5821 5821 5820 5818 5817 5816 5814 5812 5810 5808 5806 5806 5805 5804 5802 5801 5800 5798 5795 5793 5791 5789 5787 5784 5782 5780 5778 5776 5774 5772 5770 5768 5767 5766
5869 5869 5870 5870 5871 5872 5872 5872 5873 5873 5873 5874 5873 5873 5872 5871 5870 5868 5868 5867 5866 5864 5863 5861 5860 5860 5859 5857 5854 5852 5851 5849 5844 5840 5839 5838 5836 5834 5833 5832 5832 5832 5831 5829 5828 5827 5824 5821 5819 5818 5818 5818 5816 5814 5813 5812 5811 5810 5808 5806 5804 5802 5801 5799 5798 5797 5795 5794 5792 5789 5786 5784 5782 5780 5777 5775 5774 5772 5769 5767 5764 5762 5761 5759 5757
5866 5866 5867 5868 5869 5869 5869 5870 5870 5870 5870 5870 5870 5869 5869 5867 5866 5865 5864 5863 5861 5859 5858 5856 5856 5855 5854 5852 5850 5848 5847 5844 5839 5835 5835 5834 5832 5831 5829 5828 5827 5827 5826 5824 5823 5822 5820 5817 5815 5814 5814 5813 5811 5809 5808 5807 5806 5805 5804 5802 5799 5797 5796 5794 5792 5791 5790 5788 5786 5783 5781 5778 5776 5774 5770 5768 5766 5764 5761 5759 5756 5755 5753 5750 5749
5863 5864 5864 5865 5866 5866 5866 5866 5866 5866 5866 5866 5866 5866 5865 5864 5863 5862 5861 5860 5857 5855 5854 5852 5851 5850 5848 5847 5845 5843 5842 5839 5834 5831 5830 5828 5827 5826 5825 5824 5823 5822 5821 5820 5818 5817 5815 5813 5811 5810 5809 5807 5806 5805 5804 5802 5801 5800 5799 5797 5794 5793 5791 5789 5787 5786 5784 5782 5779 5777 5776 5773 5770 5767 5765 5761 5758 5756 5753 5751 5749 5747 5745 5743 5742
5860 5861 5861 5862 5863 5863 5863 5862 5863 5863 5863 5862 5862 5862 5861 5860 5859 5858 5857 5856 5854 5853 5851 5849 5847 5845 5843 5842 5840 5838 5837 5834 5830 5827 5825 5823 5822 5822 5821 5820 5819 5817 5816 5815 5814 5812 5810 5808 5806 5805 5803 5800 5799 5799 5799 5797 5796 5794 5793 5792 5790 5788 5786 5784 5782 5780 5777 5775 5773 5771 5769 5767 5764 5761 5759 5755 5752 5749 5746 5744 5742 5739 5737 5737 5736
5857 5857 5858 5858 5859 5859 5859 5859 5859 5859 5859 5859 5859 5858 5857 5857 5856 5854 5853 5852 5850 5849 5848 5846 5844 5841 5839 5837 5834 5832 5831 5829 5825 5822 5821 5820 5819 5818 5817 5815 5814 5812 5810 5810 5809 5807 5805 5803 5801 5800 5796 5793 5792 5793 5793 5792 5791 5788 5787 5786 5784 5782 5781 5778 5776 5774 5771 5768 5766 5764 5762 5760 5758 5755 5751 5748 5744 5742 5740 5738 5735 5732 5731 5730 5729
5852 5853 5853 5854 5855 5855 5855 5855 5855 5854 5855 5855 5854 5854 5853 5852 5851 5850 5849 5847 5845 5844 5843 5841 5839 5837 5835 5832 5829 5827 5826 5824 5821 5819 5818 5817 5815 5814 5812 5810 5808 5806 5805 5804 5804 5802 5800 5797 5796 5793 5791 5789 5789 5790 5789 5788 5785 5783 5781 5780 5777 5775 5773 5771 5769 5767 5765 5763 5760 5758 5756 5754 5751 5747 5744 5740 5737 5735 5733 5731 5728 5726 5724 5723 5721
5848 5849 5849 5849 5850 5851 5851 5851 5850 5850 5850 5850 5850 5850 5849 5848 5847 5846 5844 5842 5840 5839 5837 5836 5834 5832 5830 5827 5825 5823 5820 5818 5816 5815 5814 5812 5811 5809 5807 5804 5803 5801 5799 5799 5798 5797 5795 5793 5790 5788 5787 5786 5786 5786 5784 5783 5780 5778 5776 5774 5771 5768 5766 5763 5761 5760 5759 5757 5755 5752 5749 5746 5743 5740 5737 5733 5730 5728 5726 5724 5722 5720 5718 5716 5714
5844 5845 5845 5846 5847 5847 5846 5846 5845 5845 5845 5845 5845 5845 5845 5843 5842 5841 5839 5838 5836 5834 5832 5830 5829 5827 5825 5822 5820 5818 5816 5814 5813 5810 5809 5807 5806 5804 5801 5799 5798 5797 5795 5794 5793 5792 5790 5788 5786 5784 5783 5782 5782 5780 5778 5777 5775 5773 5770 5768 5765 5763 5760 5758 5756 5753 5752 5750 5748 5746 5742 5738 5735 5732 5730 5727 5724 5721 5719 5718 5716 5713 5712 5710 5708
5839 5840 5841 5842 5842 5841 5841 5841 5840 5840 5840 5839 5839 5839 5839 5838 5837 5836 5835 5833 5831 5829 5828 5826 5824 5822 5819 5817 5815 5813 5811 5810 5809 5807 5805 5804 5802 5799 5796 5795 5794 5793 5791 5790 5788 5786 5784 5783 5782 5780 5779 5778 5776 5774 5772 5771 5769 5767 5765 5762 5760 5758 5755 5753 5751 5748 5746 5744 5741 5739 5735 5732 5729 5726 5723 5722 5719 5716 5714 5712 5710 5708 5706 5705 5702
5834 5835 5836 5835 5835 5835 5836 5836 5835 5835 5834 5834 5833 5833 5833 5833 5832 5831 5830 5829 5827 5825 5824 5822 5820 5817 5814 5812 5810 5809 5807 5806 5804 5802 5801 5799 5797 5795 5792 5790 5790 5789 5787 5786 5784 5782 5780 5779 5778 5777 5775 5773 5771 5769 5767 5765 5763 5761 5759 5757 5755 5752 5750 5748 5745 5742 5740 5737 5735 5732 5729 5726 5723 5720 5718 5716 5714 5711 5709 5707 5705 5702 5701 5699 5697
5829 5829 5830 5830 5830 5830 5830 5830 5830 5830 5829 5829 5828 5828 5828 5828 5828 5827 5826 5824 5822 5821 5820 5818 5815 5813 5810 5807 5806 5806 5804 5802 5800 5798 5796 5794 5793 5791 5788 5786 5785 5784 5783 5782 5780 5779 5778 5776 5774 5772 5771 5769 5766 5764 5761 5759 5757 5755 5753 5751 5749 5746 5744 5742 5740 5737 5734 5731 5728 5725 5722 5720 5717 5715 5713 5711 5709 5706 5704 5702 5700 5698 5695 5693 5691
5824 5824 5825 5826 5826 5826 5826 5826 5826 5825 5825 5824 5823 5823 5823 5823 5823 5822 5821 5819 5818 5816 5815 5813 5811 5808 5805 5803 5802 5801 5800 5798 5796 5794 5792 5789 5787 5785 5782 5780 5780 5779 5778 5777 5776 5775 5774 5772 5770 5768 5766 5763 5761 5758 5756 5754 5752 5749 5747 5745 5743 5741 5739 5736 5734 5731 5728 5725 5722 5719 5716 5714 5712 5710 5708 5706 5704 5702 5700 5698 5695 5693 5691 5688 5686
5818 5819 5820 5821 5821 5821 5821 5821 5821 5820 5820 5819 5818 5818 5817 5818 5817 5816 5815 5814 5813 5811 5809 5807 5805 5803 5800 5798 5796 5794 5793 5791 5790 5788 5786 5782 5780 5778 5777 5776 5776 5775 5774 5772 5771 5770 5768 5766 5765 5763 5760 5758 5755 5753 5750 5748 5746 5744 5742 5740 5737 5735 5733 5731 5728 5725 5722 5720 5717 5714 5711 5709 5707 5705 5703 5701 5700 5697 5695 5693 5691 5688 5686 5684 5682
5814 5814 5815 5815 5815 5815 5816 5816 5816 5815 5814 5814 5814 5813 5812 5812 5812 5811 5810 5809 5807 5805 5803 5801 5799 5797 5795 5794 5791 5789 5787 5785 5784 5782 5780 5777 5774 5773 5772 5772 5771 5770 5769 5767 5765 5763 5762 5760 5758 5756 5754 5751 5749 5747 5745 5743 5741 5739 5737 5734 5732 5730 5727 5724 5722 5719 5716 5714 5711 5709 5707 5705 5703 5701 5699 5697 5695 5693 5691 5689 5686 5684 5682 5680 5678
5808 5809 5809 5810 5810 5810 5810 5810 5811 5811 5811 5810 5810 5809 5808 5807 5806 5806 5805 5803 5801 5799 5797 5795 5793 5791 5790 5788 5786 5784 5782 5780 5778 5777 5775 5772 5770 5769 5768 5767 5766 5765 5763 5761 5759 5757 5755 5753 5752 5750 5747 5745 5743 5741 5740 5738 5736 5733 5731 5728 5726 5724 5721 5718 5716 5713 5711 5708 5706 5704 5702 5701 5699 5696 5694 5692 5690 5688 5686 5684 5682 5680 5678 5676 5674
5802 5803 5804 5804 5804 5805 5805 5807 5808 5808 5806 5805 5804 5803 5803 5802 5801 5800 5799 5797 5795 5794 5792 5790 5788 5787 5785 5783 5781 5779 5777 5775 5774 5772 5770 5767 5766 5764 5763 5762 5760 5759 5757 5756 5753 5751 5749 5747 5745 5744 5742 5740 5738 5736 5734 5732 5730 5728 5726 5723 5721 5718 5716 5713 5710 5707 5705 5703 5701 5699 5698 5696 5694 5691 5689 5687 5685 5683 5681 5679 5677 5676 5674 5672 5670
5797 5797 5798 5799 5799 5799 5801 5802 5803 5801 5800 5799 5799 5798 5798 5797 5795 5794 5792 5791 5790 5788 5786 5785 5783 5782 5780 5778 5776 5774 5772 5770 5768 5767 5765 5763 5761 5759 5758 5757 5755 5752 5751 5749 5748 5747 5745 5743 5740 5738 5736 5734 5733 5731 5729 5728 5726 5724 5721 5719 5716 5713 5710 5708 5705 5703 5701 5699 5697 5695 5692 5690 5688 5686 5684 5682 5680 5678 5676 5675 5673 5672 5670 5668 5666
5791 5792 5793 5794 5794 5794 5796 5796 5795 5794 5794 5794 5793 5793 5792 5791 5789 5788 5786 5785 5784 5783 5781 5780 5778 5776 5774 5772 5770 5768 5767 5765 5763 5762 5760 5758 5757 5755 5753 5752 5749 5747 5745 5743 5742 5741 5740 5738 5735 5732 5730 5727 5727 5725 5724 5722 5720 5718 5715 5713 5710 5707 5705 5703 5701 5699 5696 5694 5692 5690 5688 5685 5683 5681 5679 5677 5676 5674 5672 5671 5669 5668 5666 5664 5662
5786 5786 5788 5789 5788 5789 5790 5790 5789 5789 5789 5788 5788 5787 5786 5785 5784 5782 5781 5779 5778 5776 5775 5774 5773 5771 5769 5767 5765 5764 5762 5760 5758 5757 5755 5753 5751 5750 5748 5746 5744 5742 5740 5739 5737 5735 5734 5733 5730 5727 5724 5721 5720 5718 5717 5715 5713 5711 5709 5706 5704 5702 5700 5698 5696 5693 5691 5688 5687 5685 5683 5681 5678 5676 5674 5673 5671 5669 5668 5667 5665 5664 5662 5660 5659
5780 5780 5782 5783 5783 5784 5785 5784 5783 5783 5783 5782 5782 5781 5780 5779 5778 5776 5775 5773 5772 5770 5769 5768 5767 5765 5763 5762 5760 5759 5757 5755 5753 5752 5750 5748 5746 5744 5742 5740 5739 5737 5736 5734 5732 5730 5728 5727 5724 5721 5719 5716 5714 5712 5710 5709 5707 5705 5703 5701 5698 5697 5695 5693 5691 5688 5685 5683 5681 5679 5677 5675 5673 5671 5670 5668 5667 5665 5664 5663 5661 5660 5658 5657 5655
5774 5775 5776 5777 5778 5779 5779 5778 5777 5776 5776 5775 5775 5774 5773 5773 5771 5770 5768 5767 5766 5764 5763 5762 5761 5760 5758 5756 5755 5753 5752 5750 5748 5746 5744 5742 5741 5739 5737 5736 5734 5732 5730 5728 5726 5724 5722 5720 5718 5716 5713 5711 5709 5707 5705 5703 5701 5699 5697 5695 5693 5691 5690 5688 5685 5683 5680 5678 5676 5674 5672 5670 5668 5667 5665 5664 5662 5661 5660 5659 5658 5656 5654 5653 5651
5767 5768 5769 5770 5772 5773 5773 5772 5771 5770 5769 5768 5768 5768 5767 5766 5765 5763 5762 5762 5761 5759 5758 5756 5755 5754 5753 5751 5750 5748 5747 5745 5742 5740 5739 5737 5735 5734 5732 5730 5729 5727 5724 5722 5720 5718 5716 5714 5712 5711 5708 5706 5704 5702 5699 5697 5696 5694 5692 5690 5688 5686 5684 5682 5680 5677 5675 5673 5671 5669 5667 5666 5664 5662 5661 5660 5659 5658 5656 5655 5654 5652 5651 5649 5648
5759 5761 5763 5764 5765 5767 5767 5766 5765 5764 5763 5763 5762 5762 5761 5760 5759 5758 5757 5756 5755 5754 5752 5751 5749 5748 5747 5746 5744 5743 5741 5739 5737 5735 5733 5731 5729 5728 5726 5725 5723 5721 5719 5717 5715 5713 5711 5709 5707 5706 5704 5701 5699 5697 5695 5693 5691 5690 5687 5685 5683 5681 5679 5677 5675 5673 5671 5669 5667 5665 5663 5661 5660 5659 5657 5656 5655 5654 5653 5652 5650 5649 5647 5646 5644
5754 5756 5757 5758 5759 5760 5760 5760 5759 5758 5758 5757 5756 5755 5754 5753 5753 5752 5752 5750 5749 5748 5747 5745 5744 5742 5741 5740 5738 5737 5735 5734 5732 5730 5727 5725 5724 5722 5720 5719 5717 5716 5714 5712 5711 5709 5706 5704 5702 5700 5699 5697 5695 5693 5691 5689 5687 5685 5683 5681 5679 5676 5674 5672 5670 5668 5666 5664 5662 5660 5659 5657 5656 5655 5654 5653 5652 5651 5650 5648 5647 5646 5644 5643 5641
5749 5750 5752 5753 5754 5754 5753 5754 5754 5753 5752 5751 5750 5749 5748 5747 5747 5747 5746 5745 5744 5742 5741 5740 5738 5737 5735 5734 5732 5731 5729 5728 5726 5723 5721 5719 5717 5716 5715 5713 5711 5710 5709 5708 5706 5704 5702 5700 5697 5695 5694 5693 5691 5689 5687 5685 5683 5681 5679 5677 5675 5673 5670 5668 5666 5664 5662 5660 5659 5657 5655 5654 5653 5652 5651 5650 5649 5648 5647 5645 5644 5643 5641 5640 5638
5745 5746 5746 5747 5748 5748 5748 5748 5748 5746 5745 5745 5744 5743 5742 5742 5741 5741 5740 5739 5737 5736 5736 5735 5733 5731 5730 5728 5727 5725 5723 5721 5719 5717 5716 5714 5712 5711 5709 5707 5706 5704 5704 5703 5702 5700 5698 5696 5694 5691 5690 5689 5687 5685 5683 5681 5679 5677 5675 5673 5671 5669 5667 5664 5662 5660 5658 5657 5655 5654 5652 5651 5650 5649 5648 5647 5646 5645 5643 5642 5641 5640 5638 5637 5635
5740 5740 5740 5740 5741 5742 5742 5741 5740 5740 5739 5738 5737 5737 5736 5736 5735 5735 5734 5733 5731 5730 5729 5729 5727 5725 5724 5722 5721 5719 5718 5716 5714 5712 5710 5709 5707 5706 5705 5703 5701 5699 5698 5697 5696 5695 5693 5691 5690 5688 5687 5685 5684 5682 5680 5678 5676 5674 5672 5669 5667 5666 5664 5661 5659 5657 5655 5654 5652 5651 5649 5648 5647 5646 5645 5644 5643 5642 5640 5639 5638 5637 5635 5634 5633
5733 5733 5734 5735 5735 5735 5735 5734 5734 5733 5733 5732 5731 5731 5731 5730 5729 5729 5728 5727 5726 5724 5724 5723 5722 5720 5718 5717 5716 5714 5712 5710 5709 5708 5706 5705 5704 5702 5700 5698 5697 5695 5693 5692 5691 5690 5688 5687 5686 5685 5684 5682 5680 5678 5676 5674 5672 5671 5669 5666 5664 5662 5660 5658 5656 5654 5653 5651 5650 5649 5647 5646 5645 5644 5642 5641 5640 5639 5637 5636 5635 5634 5632 5631 5630
5728 5728 5729 5729 5729 5729 5729 5728 5728 5728 5727 5726 5725 5726 5725 5724 5723 5723 5722 5722 5721 5719 5718 5718 5717 5714 5711 5710 5710 5709 5707 5706 5705 5703 5702 5700 5699 5697 5696 5693 5692 5691 5690 5688 5687 5686 5684 5683 5682 5681 5680 5679 5677 5675 5674 5672 5670 5668 5666 5664 5662 5659 5657 5655 5654 5652 5651 5649 5648 5646 5645 5644 5642 5641 5640 5638 5637 5636 5634 5633 5632 5631 5630 5628 5627
5723 5724 5723 5723 5723 5723 5723 5723 5722 5722 5721 5721 5721 5721 5719 5718 5717 5717 5717 5716 5715 5715 5714 5713 5712 5709 5706 5704 5703 5703 5702 5701 5700 5699 5698 5697 5695 5693 5691 5690 5688 5687 5686 5684 5683 5682 5681 5680 5679 5678 5677 5676 5674 5673 5671 5669 5667 5666 5664 5662 5660 5657 5655 5653 5651 5650 5648 5647 5645 5644 5643 5641 5640 5639 5637 5636 5634 5633 5632 5630 5629 5628 5627 5626 5624
5717 5717 5717 5717 5717 5718 5718 5718 5717 5716 5716 5716 5716 5714 5713 5712 5712 5711 5711 5710 5709 5708 5709 5708 5707 5705 5702 5700 5698 5697 5697 5696 5695 5694 5693 5692 5691 5690 5688 5686 5685 5683 5682 5680 5680 5679 5678 5677 5676 5675 5674 5672 5671 5670 5668 5667 5665 5664 5662 5660 5658 5655 5653 5651 5649 5647 5646 5644 5643 5642 5640 5639 5637 5636 5635 5633 5632 5630 5629 5627 5626 5625 5624 5623 5622
5711 5711 5711 5711 5711 5711 5712 5712 5712 5711 5711 5711 5710 5709 5708 5707 5706 5706 5705 5704 5702 5701 5702 5702 5701 5699 5698 5696 5694 5692 5691 5690 5690 5689 5687 5686 5686 5685 5683 5682 5681 5679 5678 5677 5676 5676 5674 5673 5672 5672 5671 5670 5669 5667 5666 5665 5663 5661 5659 5658 5655 5653 5651 5649 5647 5646 5644 5642 5641 5639 5638 5636 5635 5633 5632 5630 5629 5627 5626 5625 5623 5622 5621 5620 5619
5705 5705 5704 5705 5705 5705 5705 5706 5706 5706 5706 5705 5704 5703 5702 5702 5701 5700 5700 5698 5696 5695 5696 5696 5695 5693 5692 5692 5690 5688 5687 5685 5685 5684 5683 5682 5681 5680 5679 5678 5677 5676 5674 5674 5673 5672 5671 5670 5670 5669 5668 5667 5666 5665 5664 5662 5661 5659 5657 5656 5653 5651 5649 5647 5645 5644 5642 5640 5639 5637 5635 5634 5632 5631 5629 5627 5626 5624 5623 5622 5620 5619 5618 5617 5616
5699 5698 5698 5698 5699 5699 5699 5699 5699 5700 5700 5699 5698 5698 5697 5697 5696 5695 5694 5693 5691 5690 5690 5691 5690 5689 5688 5687 5685 5684 5682 5681 5680 5680 5679 5678 5676 5675 5675 5674 5674 5672 5671 5670 5669 5668 5667 5667 5667 5666 5665 5665 5664 5663 5662 5660 5659 5657 5655 5654 5652 5650 5648 5646 5644 5642 5640 5638 5637 5635 5633 5631 5630 5628 5626 5625 5623 5622 5620 5619 5617 5616 5615 5614 5613
5693 5693 5693 5693 5693 5693 5694 5694 5693 5694 5694 5693 5693 5692 5691 5691 5690 5690 5689 5688 5687 5685 5685 5686 5686 5685 5684 5682 5680 5679 5678 5676 5676 5675 5675 5674 5673 5672 5671 5670 5670 5669 5668 5666 5666 5665 5664 5664 5664 5663 5663 5662 5661 5660 5659 5658 5657 5655 5653 5652 5650 5648 5646 5644 5642 5640 5638 5637 5635 5633 5631 5629 5627 5626 5624 5622 5620 5619 5617 5616 5614 5613 5612 5611 5610
5688 5688 5688 5688 5688 5688 5689 5688 5688 5688 5688 5688 5687 5686 5686 5685 5684 5684 5683 5682 5682 5681 5680 5680 5680 5681 5680 5678 5676 5675 5674 5673 5672 5671 5671 5670 5669 5668 5667 5666 5666 5665 5664 5663 5662 5662 5661 5661 5661 5660 5660 5660 5659 5658 5657 5656 5654 5653 5651 5649 5647 5646 5644 5642 5640 5639 5637 5635 5633 5631 5629 5627 5625 5623 5622 5620 5618 5616 5615 5613 5612 5611 5609 5608 5607
5683 5683 5683 5683 5683 5683 5683 5683 5683 5682 5682 5682 5681 5681 5680 5680 5679 5678 5678 5677 5677 5676 5675 5675 5675 5675 5675 5674 5672 5671 5670 5669 5668 5667 5667 5666 5665 5664 5663 5662 5662 5661 5660 5660 5659 5659 5658 5658 5658 5658 5657 5657 5656 5655 5654 5653 5652 5650 5649 5647 5645 5644 5642 5640 5639 5637 5635 5633 5631 5629 5627 5625 5623 5621 5619 5617 5616 5614 5612 5611 5610 5609 5608 5607 5606
5678 5678 5678 5678 5678 5678 5678 5677 5677 5677 5676 5676 5676 5676 5675 5675 5674 5673 5673 5673 5672 5672 5671 5670 5669 5669 5669 5668 5668 5667 5666 5665 5664 5663 5662 5662 5661 5660 5659 5659 5658 5658 5657 5657 5656 5656 5656 5655 5655 5655 5654 5654 5653 5652 5651 5650 5649 5648 5646 5645 5643 5642 5640 5638 5637 5635 5633 5631 5629 5627 5625 5623 5621 5619 5618 5616 5614 5612 5611 5610 5609 5608 5607 5606 5605
5672 5672 5672 5672 5672 5672 5672 5671 5671 5671 5671 5670 5670 5670 5670 5670 5669 5669 5668 5668 5667 5666 5666 5665 5665 5664 5664 5664 5663 5663 5662 5661 5660 5659 5658 5658 5657 5657 5656 5656 5655 5655 5654 5653 5653 5653 5653 5652 5652 5652 5651 5651 5650 5649 5648 5647 5646 5645 5643 5642 5641 5639 5638 5636 5635 5633 5631 5629 5628 5626 5624 5622 5620 5618 5616 5615 5613 5612 5610 5609 5608 5607 5606 5605 5604